Temp
8 8 8 8 8 8 8 8 8 8 8 8 8 8 8 8 9 11 9 20 20 20 20 20 20 21 21 20 21 21 19 17 20 21 23 24 25 27 27 27 28 29 29 29 31
7 7 7 7 7 7 7 8 8 8 8 8 8 8 8 8 8 8 22 20 21 20 20 19 20 20 19 20 20 20 17 19 22 22 23 23 24 25 26 26 27 27 30 29 28
7 7 7 7 7 7 7 8 8 8 8 8 8 8 8 8 10 17 21 22 21 20 19 20 20 20 20 20 19 19 20 21 22 23 23 24 25 25 26 25 25 26 28 28 26
7 7 7 7 7 7 7 8 8 8 8 8 8 8 8 10 19 22 22 23 21 19 19 19 19 19 19 19 19 20 21 21 22 23 23 23 25 25 25 25 26 27 27 27 25
7 7 7 7 7 7 8 8 8 8 8 8 7 8 10 11 13 22 21 21 20 19 19 19 19 19 20 20 20 20 20 22 22 22 22 23 23 24 25 27 26 27 27 26 25
9 7 7 7 7 8 8 8 8 8 8 8 8 8 9 13 21 21 21 20 20 19 19 19 20 19 20 20 20 21 21 21 21 21 21 22 24 23 26 26 26 27 26 25 25
11 10 8 7 7 7 8 8 9 9 9 8 8 9 10 14 20 20 21 21 20 20 20 20 21 21 21 20 21 21 21 20 21 23 22 21 22 23 24 25 25 26 26 25 25
13 12 12 12 13 14 14 13 13 13 10 9 9 9 11 19 20 20 21 21 21 21 20 22 22 21 21 21 19 19 19 18 20 22 23 24 22 23 24 25 25 25 25 25 25
14 13 14 14 14 16 15 15 15 14 11 9 10 10 13 19 18 22 21 21 22 22 22 22 22 20 20 18 15 15 17 18 19 21 22 23 21 23 23 22 22 23 23 24 24
14 15 14 15 15 16 16 16 14 13 11 10 11 12 16 21 22 23 23 22 21 21 21 22 16 17 14 15 15 16 17 18 18 20 22 20 20 21 21 22 22 21 22 22 22
14 15 16 16 16 16 16 14 13 13 12 16 17 17 19 21 23 23 23 21 22 21 19 19 17 16 17 17 18 18 17 17 19 21 21 20 20 20 20 20 20 21 19 20 20
15 15 15 16 16 17 16 13 17 17 14 15 17 17 20 20 19 20 23 21 21 19 19 17 16 18 18 19 18 18 17 18 19 20 19 19 20 19 21 21 20 20 19 20 21
14 15 15 17 16 16 15 17 18 17 15 18 17 18 19 19 18 19 21 20 20 19 18 17 19 20 20 19 19 19 18 18 18 21 20 21 19 20 22 22 22 21 21 21 20
14 14 14 15 14 14 15 19 18 17 15 18 19 20 20 21 21 22 22 21 19 19 18 17 19 19 19 19 20 18 20 20 20 19 17 20 18 19 20 20 20 20 19 18 19
14 15 14 11 13 13 19 19 18 17 16 22 21 23 21 21 23 23 22 21 19 19 18 18 20 20 19 20 19 19 20 19 19 18 18 18 16 16 19 19 19 20 20 20 18
14 14 12 11 10 17 18 18 18 15 16 22 23 22 21 22 22 23 22 21 21 19 19 19 20 20 20 19 20 19 19 18 15 15 15 17 16 19 19 19 20 20 19 20 21
14 15 14 12 15 17 18 15 15 14 21 21 22 22 21 21 22 22 21 19 19 17 17 18 19 18 19 18 17 17 14 13 14 15 17 17 16 19 20 19 19 19 18 19 20
14 15 15 15 16 17 17 15 15 18 20 22 21 21 21 20 20 20 19 17 18 18 15 16 16 18 19 18 17 15 16 13 14 13 16 17 15 19 19 19 19 18 17 16 14
14 15 15 17 18 17 14 14 15 18 20 20 20 20 19 20 20 19 19 18 18 18 17 14 14 16 17 18 17 15 13 13 13 13 13 13 15 19 19 20 19 18 17 15 15
11 11 14 17 18 17 13 14 16 19 20 20 19 20 19 18 18 18 17 19 17 18 17 16 14 16 17 17 15 14 13 12 12 13 14 13 14 15 17 17 18 19 15 15 15
10 9 16 16 18 14 14 14 17 20 20 19 19 19 18 17 17 17 18 18 18 16 15 14 13 14 15 15 14 13 12 12 11 12 13 13 13 15 15 14 14 17 16 16 14
7 10 17 17 14 12 14 16 16 19 19 19 19 19 18 17 17 17 17 18 18 16 15 13 11 11 13 14 15 14 12 12 10 12 12 12 12 15 14 14 14 15 19 18 18
6 7 16 16 13 12 14 16 17 17 18 18 18 18 17 17 16 16 16 17 17 15 13 12 10 9 11 12 14 14 13 12 11 10 11 11 11 16 15 15 14 14 15 17 19
6 8 9 10 11 13 12 14 14 17 17 18 18 18 17 16 16 16 16 17 16 16 16 13 10 11 10 12 11 11 12 12 10 10 11 12 13 15 14 14 14 13 13 13 14
8 8 8 8 11 11 11 12 13 13 15 16 17 16 16 15 15 14 15 15 15 16 12 11 11 11 11 12 12 12 13 13 11 12 11 14 13 14 12 12 13 12 13 13 13
7 8 7 6 9 11 11 11 11 12 12 13 14 15 15 14 14 14 14 13 13 13 13 9 9 12 11 13 13 12 13 13 14 15 14 14 12 13 12 12 13 12 12 12 13
7 8 8 9 9 10 10 11 11 9 11 14 14 14 14 14 14 13 12 12 13 12 11 10 9 9 11 12 11 11 12 12 12 12 11 12 12 12 11 11 11 11 11 12 12
Height
812 809 805 802 799 796 793 791 789 787 785 783 780 779 778 776 772 769 766 755 755 756 760 761 762 762 765 767 765 766 791 801 785 785 766 755 760 751 745 746 745 740 735 722 721
810 806 803 799 796 793 791 788 786 784 783 781 779 777 774 773 769 763 748 748 752 755 756 758 760 761 769 767 768 773 791 783 767 767 766 759 759 757 756 749 745 741 731 725 729
807 803 800 797 794 791 788 786 784 782 781 779 777 775 774 772 770 750 746 745 750 754 757 760 761 763 768 766 767 769 773 766 761 760 759 756 755 751 752 756 748 746 735 728 730
805 801 797 794 791 788 785 783 781 780 779 777 776 774 773 772 768 747 746 746 749 753 756 759 761 766 770 771 762 772 762 761 758 755 758 756 750 751 749 744 736 732 731 729 728
803 799 795 791 788 785 782 780 778 777 776 775 774 774 774 774 762 749 749 749 751 754 757 759 763 765 770 765 762 766 762 755 750 750 752 750 750 750 739 734 730 726 727 726 726
801 796 792 788 785 783 779 777 775 774 773 773 773 774 775 775 748 748 749 751 752 754 756 757 758 758 763 762 765 756 756 755 751 750 749 751 746 746 727 729 729 724 722 719 720
800 795 789 786 782 779 777 774 773 772 772 772 772 773 774 759 748 748 748 749 751 752 754 753 752 756 755 759 754 752 759 755 750 744 747 743 751 740 730 725 725 721 719 720 719
799 794 788 784 780 777 775 773 772 771 770 770 771 773 767 747 747 746 748 748 749 750 752 750 752 753 753 753 758 763 763 771 753 747 744 744 753 734 726 726 727 723 718 714 715
799 792 787 783 779 777 775 772 771 770 770 770 772 773 762 746 745 742 745 745 745 748 748 748 751 755 758 771 783 780 783 775 764 746 745 746 750 733 724 730 730 725 720 714 711
798 791 785 782 778 775 773 769 768 770 771 771 772 775 750 743 740 739 740 743 746 747 748 749 761 768 778 784 799 785 781 772 770 753 746 752 744 736 728 725 721 722 717 714 711
796 790 784 780 777 773 770 769 772 771 770 759 754 752 744 741 738 737 739 742 746 749 762 758 771 778 772 772 768 771 774 773 759 746 750 747 740 737 727 723 717 712 715 711 710
795 789 784 778 774 771 769 769 767 768 763 747 744 744 740 743 747 737 738 745 749 760 758 769 774 761 759 761 765 767 770 766 752 743 748 743 737 730 724 719 714 711 712 707 703
791 785 779 773 768 766 767 764 763 761 766 743 738 737 736 739 743 739 736 741 749 758 761 771 757 748 755 758 762 760 764 757 756 740 736 736 740 729 716 713 707 704 705 705 704
787 782 774 767 767 763 762 761 761 759 774 750 738 731 730 731 737 724 728 738 748 755 758 763 747 751 754 757 752 764 743 745 745 751 760 735 753 733 722 718 712 708 704 703 702
784 777 771 765 763 761 759 758 757 759 782 733 732 722 725 734 727 725 723 733 746 747 754 755 745 748 754 751 748 753 740 743 742 747 748 747 761 735 721 723 716 706 700 695 691
780 774 766 762 759 755 756 755 756 780 778 733 725 730 734 730 729 724 728 728 730 745 746 747 740 743 745 742 741 740 744 744 753 758 763 741 754 729 721 715 707 702 698 693 686
775 767 761 761 755 753 754 755 780 786 738 742 736 730 734 737 733 730 735 740 746 759 759 750 745 744 740 748 745 750 765 781 770 765 747 738 748 715 701 704 703 701 697 689 681
771 762 755 753 754 753 754 767 780 756 747 735 735 734 740 738 739 737 740 748 740 743 760 763 764 748 741 747 753 758 759 775 765 769 747 736 738 699 696 694 692 693 693 687 681
767 756 752 751 751 753 760 775 771 757 746 746 739 742 744 740 740 742 742 745 742 742 756 769 768 748 744 742 747 755 764 760 762 762 756 746 720 695 690 690 686 687 687 690 685
769 760 754 752 752 753 768 771 762 748 744 742 749 740 749 747 748 749 748 739 744 741 741 753 766 749 745 743 748 752 758 768 766 756 743 742 733 723 703 700 689 687 686 688 687
772 770 757 754 755 760 773 770 757 746 744 746 744 743 746 750 749 750 746 741 737 745 748 754 762 757 751 751 753 758 763 766 767 761 751 746 735 711 714 712 705 691 686 685 688
781 778 757 756 768 774 770 764 756 746 743 742 738 740 744 746 749 749 749 744 736 742 751 757 771 773 760 748 744 750 757 760 775 754 751 745 737 708 713 707 705 701 685 682 679
791 785 760 758 775 779 770 764 759 756 749 745 746 742 744 748 752 747 747 740 740 746 754 758 773 785 769 759 750 750 754 754 761 766 758 754 744 706 708 704 704 710 698 688 678
796 794 776 770 776 777 780 770 768 757 750 747 746 743 747 749 748 750 748 743 743 742 742 750 771 765 777 759 763 764 751 751 759 763 751 738 729 715 714 709 708 710 708 701 694
798 799 798 796 780 783 780 780 770 768 758 751 749 750 751 754 753 753 748 747 744 741 751 757 763 763 758 752 749 747 745 741 747 740 745 721 724 717 719 717 713 714 710 706 701
803 803 800 800 790 782 779 776 774 772 769 762 759 753 752 755 751 750 749 751 751 750 750 763 772 754 755 745 743 741 736 732 727 720 722 722 724 717 718 717 712 712 709 705 701
803 803 803 792 788 785 780 775 774 779 769 762 758 755 751 746 741 741 744 746 744 749 756 760 767 770 759 747 745 744 735 733 737 730 731 728 722 719 720 717 714 712 711 706 698
Wind_Speed
19 19 18 18 18 17 18 18 17 17 17 17 16 16 15 16 19 14 8 12 4 14 15 7 7 3 3 2 4 4 2 5 8 8 14 9 3 1 5 6 6 5 5 10 17
20 19 19 18 18 18 18 17 17 17 16 15 15 15 15 15 15 12 11 11 11 5 3 5 1 3 2 3 3 4 4 8 4 7 10 7 4 4 6 13 8 11 5 10 14
21 20 19 18 18 18 18 17 16 15 14 14 13 13 13 13 5 7 9 4 14 10 7 2 3 2 2 3 4 5 9 4 4 5 9 14 14 5 5 11 10 13 7 5 8
21 21 20 19 19 18 17 15 15 13 12 12 11 11 11 3 1 3 6 7 14 8 7 2 3 3 3 5 6 5 5 5 8 9 10 12 10 13 6 13 10 12 7 5 10
21 21 21 20 19 17 16 15 13 12 10 9 8 8 3 1 9 4 2 8 12 10 7 4 3 3 3 3 1 5 6 9 12 12 10 12 16 12 21 15 10 15 7 11 10
26 23 21 20 19 17 15 13 12 11 9 8 6 3 1 4 3 6 7 9 8 12 7 7 5 6 3 4 5 3 4 7 7 8 6 8 13 5 18 10 15 17 11 8 10
29 29 23 20 18 16 13 11 10 9 9 7 4 3 1 12 2 6 10 10 12 10 4 9 5 2 2 6 1 3 5 6 4 4 4 6 7 15 8 10 12 10 8 8 11
31 32 26 22 19 15 12 10 7 5 6 6 4 3 7 5 6 9 11 14 13 13 15 16 8 4 2 2 8 6 3 4 4 1 6 4 14 13 7 5 9 10 9 9 9
35 36 28 21 18 15 14 12 7 4 3 5 5 3 9 6 8 15 16 12 10 11 17 19 4 1 5 3 5 5 5 5 7 4 4 6 9 7 7 7 10 11 10 10 9
38 38 29 21 18 17 15 16 4 2 3 2 4 3 8 1 6 5 13 21 4 5 4 4 5 2 3 5 3 5 5 6 5 4 1 10 17 9 10 7 13 10 13 10 10
40 40 30 24 18 18 19 3 3 0 4 8 6 5 9 10 7 4 9 8 4 3 2 2 2 6 10 8 8 5 5 10 13 15 4 12 13 9 10 8 13 10 10 10 12
42 41 35 31 22 18 11 1 4 4 9 13 17 12 19 3 4 6 6 5 4 5 2 4 7 9 6 7 8 8 12 15 11 14 6 10 14 9 7 9 7 10 9 10 6
44 45 45 36 20 10 3 9 9 11 2 6 6 5 6 12 8 8 9 6 5 4 5 7 10 2 5 7 7 10 7 12 12 6 5 2 9 6 4 5 6 6 3 5 8
45 46 52 37 4 2 6 4 16 1 3 5 4 6 6 5 5 11 16 6 3 10 6 6 9 9 6 6 5 6 9 9 9 4 7 3 11 5 5 8 6 9 8 9 9
46 44 49 22 7 4 2 12 13 3 3 3 3 5 4 7 2 3 8 3 9 8 6 10 3 3 6 5 4 7 7 7 9 5 1 2 1 8 2 6 9 9 11 11 10
47 42 44 8 7 9 9 13 3 4 5 1 4 5 4 3 2 3 4 3 4 5 4 7 2 1 3 5 3 8 6 5 5 2 3 7 7 14 9 7 5 5 8 12 15
47 43 27 9 3 4 9 3 4 3 5 5 3 1 5 2 0 2 4 6 10 4 2 3 3 3 1 2 4 9 6 5 4 3 13 8 4 17 4 6 8 9 10 14 16
49 38 21 11 3 4 2 4 3 3 4 7 3 5 3 1 1 2 4 5 5 3 3 3 5 2 2 3 5 3 4 3 7 5 7 4 8 18 4 7 8 8 7 10 12
50 29 10 2 8 4 4 2 4 2 8 6 9 2 1 1 2 6 2 1 3 3 3 3 4 4 6 4 5 4 5 3 4 5 4 5 8 13 13 7 4 8 10 13 12
37 14 9 3 10 6 4 3 3 3 9 4 4 2 2 2 2 3 2 1 5 4 2 4 3 4 3 5 4 1 3 0 2 4 5 4 5 7 11 8 8 1 10 8 11
10 4 10 6 1 4 1 4 5 9 4 3 4 2 1 1 1 3 4 2 0 3 4 3 3 4 3 2 3 2 2 1 2 3 3 3 5 3 5 6 13 7 4 5 6
6 3 8 5 3 2 1 6 9 6 5 4 3 1 1 1 2 3 2 1 2 5 4 1 4 3 8 6 5 4 5 5 3 3 3 4 5 4 7 7 14 17 8 6 4
4 3 7 5 1 3 5 7 8 15 10 5 4 3 2 2 2 2 1 2 2 3 6 6 1 2 8 6 4 0 3 4 1 2 5 2 5 0 3 10 5 8 14 10 10
3 4 4 4 3 3 4 4 4 12 5 6 4 2 3 1 2 2 2 0 4 3 4 7 3 6 6 6 4 5 6 6 6 3 4 9 10 12 8 6 8 8 11 13 10
2 2 1 4 3 5 2 5 11 5 6 7 4 2 1 2 3 4 2 2 3 2 3 4 5 5 7 9 9 12 13 12 9 15 10 17 10 2 5 6 5 5 8 10 11
2 3 4 4 6 4 3 2 4 5 4 8 6 10 6 5 7 7 5 4 5 1 3 1 3 3 4 11 9 9 13 12 11 13 13 13 11 1 5 6 8 9 12 13 14
3 2 1 4 4 4 3 1 3 8 6 11 13 13 10 10 8 9 7 5 5 6 5 4 3 2 4 4 7 5 3 3 4 7 5 3 3 4 6 9 11 12 13 17 18
Wind_Direction
330 326 321 317 314 311 311 311 311 312 312 314 317 318 317 316 312 302 235 241 197 219 246 242 278 232 180 207 201 121 146 219 214 209 246 303 292 135 288 273 340 253 228 225 154
331 328 323 319 315 312 310 310 309 310 312 313 314 316 318 325 315 258 281 239 203 178 165 197 314 139 172 199 205 163 193 226 183 225 269 277 251 315 325 305 300 306 302 72 97
334 329 325 321 317 314 311 310 308 309 310 311 313 314 320 332 317 250 330 200 191 207 203 181 232 177 196 149 206 200 236 209 239 239 252 274 278 269 244 278 262 274 236 180 106
338 333 328 324 320 317 313 310 308 307 308 308 311 316 328 335 325 340 2 140 162 176 188 204 161 145 214 210 217 239 239 235 263 244 250 258 269 264 234 254 246 269 220 217 146
341 338 333 328 324 320 315 311 307 305 304 306 310 324 358 306 249 297 325 152 165 178 178 185 151 169 225 233 198 205 238 248 248 251 241 257 263 262 265 263 268 275 235 199 185
352 342 335 333 328 322 316 313 308 304 302 298 295 311 123 279 290 301 210 179 184 181 198 186 197 199 250 250 161 219 243 261 270 262 249 240 259 214 257 246 255 261 250 202 199
359 356 344 337 333 328 322 317 313 309 299 291 260 159 237 238 98 9 203 217 214 201 199 221 228 226 166 321 224 276 304 322 244 258 254 181 271 243 235 222 224 244 231 197 236
0 359 352 348 346 346 346 335 319 323 309 271 185 168 249 265 296 262 220 243 245 249 252 271 271 242 157 313 357 356 49 324 281 328 264 168 262 278 214 231 254 255 252 248 210
0 357 353 350 349 349 347 333 297 306 331 164 150 186 268 284 273 237 219 231 248 262 265 268 277 180 29 57 2 357 257 262 302 216 236 198 276 270 296 208 235 246 252 253 258
1 357 351 344 342 337 339 332 274 263 101 141 259 318 274 5 285 210 202 225 230 287 4 155 56 70 36 71 247 261 295 289 283 276 213 281 275 264 274 276 270 227 230 232 237
1 360 352 344 332 327 330 329 10 3 211 212 213 241 288 290 315 299 192 164 197 92 185 21 88 225 237 208 225 234 247 259 276 277 275 264 266 264 269 293 289 277 219 226 242
0 358 353 342 327 312 315 152 212 295 298 227 243 230 252 332 324 290 200 152 140 211 124 8 255 242 225 241 231 239 258 273 276 263 210 259 268 264 249 261 258 275 217 216 229
356 352 348 343 322 297 247 269 341 347 276 294 204 204 223 158 212 248 164 169 175 203 193 199 246 261 244 281 268 262 250 266 251 265 263 272 284 286 260 261 285 294 246 275 233
353 349 346 343 308 206 267 323 331 289 8 272 231 257 170 172 271 205 192 145 185 210 205 234 263 236 265 254 245 275 277 266 265 207 256 153 275 265 242 257 292 291 282 247 232
345 342 342 329 282 210 197 326 336 121 332 163 173 152 135 158 260 232 159 93 207 204 127 236 229 264 289 265 339 252 292 279 273 225 116 236 220 274 230 268 264 271 277 281 267
340 337 336 310 235 251 304 328 91 45 255 340 137 171 137 237 276 4 170 119 225 212 246 249 324 75 237 282 238 295 330 344 19 121 239 229 178 275 244 223 242 249 272 276 275
338 334 326 262 241 141 347 43 52 173 313 4 12 87 203 270 339 24 266 183 203 164 241 345 251 276 225 307 17 28 47 320 293 257 252 152 183 246 279 232 236 279 298 292 277
339 334 323 266 213 44 60 65 192 252 24 338 337 327 112 1 236 306 7 350 37 108 124 169 308 1 44 186 217 189 175 225 268 240 269 271 229 256 142 241 231 218 7 329 327
339 337 314 320 157 109 74 112 217 260 348 337 306 284 340 26 357 22 321 150 17 35 163 142 270 303 251 253 191 186 191 83 252 224 255 235 274 299 284 279 252 91 49 16 351
336 323 310 322 138 79 74 232 263 285 323 296 250 215 217 21 56 37 295 177 181 208 149 201 281 249 300 346 32 151 139 36 219 249 218 279 276 243 298 322 282 97 75 43 13
340 357 13 154 230 56 128 249 274 305 314 292 302 264 90 113 253 214 251 320 143 81 72 109 129 285 17 216 213 141 101 277 249 242 273 303 259 242 35 355 340 349 58 72 70
1 345 348 319 41 58 344 328 307 305 335 307 327 36 165 165 235 250 234 265 159 150 150 126 147 241 247 273 240 175 182 181 169 285 302 311 273 102 47 23 359 332 316 288 137
345 278 332 338 118 1 327 337 327 326 322 327 10 1 17 180 329 223 16 26 98 149 172 182 198 341 340 353 353 259 218 223 68 76 232 257 265 284 354 345 356 333 313 316 313
10 343 327 28 39 74 13 300 309 322 314 350 286 37 1 313 256 264 266 115 339 225 169 124 154 171 204 225 190 274 249 216 188 202 251 234 274 303 334 348 338 7 352 349 326
69 304 0 317 344 325 77 282 277 323 326 316 333 38 243 274 265 237 219 301 321 140 84 112 212 202 239 248 251 263 272 272 231 241 233 269 263 283 343 328 325 319 335 340 333
50 359 359 288 288 274 156 246 270 311 324 312 323 321 275 224 219 250 201 195 212 139 118 88 257 222 270 259 268 274 286 282 300 265 251 270 290 17 322 314 327 326 325 318 313
12 6 350 289 300 309 242 358 318 349 271 269 306 296 275 250 223 222 205 203 207 183 191 172 185 103 264 313 307 290 0 49 314 285 279 277 270 336 309 318 315 312 304 297 294